Location: A�t Bou Chrif
(32.7193°N, 5.2385°W)
Time: 03:15:23
(UTC+00:00)

BREEZE-M DEB - Pass Details

Date: 08 August 2020
Orbit: 277 x 16010 km, 49.5° (Epoch: 20 September)

Event Time Altitude Azimuth Distance (km) Brightness Sun altitude
Rises 19:29:14 0° 320° (NW) 2,383 7.3 -4.1°
Reaches altitude 10° 19:30:37 10° 328° (NNW) 1,790 6.4 -4.4°
Maximum altitude 19:34:07 48° 45° (NE) 1,203 4.4 -5.0°
Drops below altitude 10° 19:46:02 10° 118° (ESE) 5,913 7.3 -7.3°
Enters shadow 19:47:36 - 119° (ESE) 6,529 7.6 -7.6°
